Location: Home
(42.5358°N, 72.7383°W)
Time: 05:52:56
(UTC-04:00)

COSMOS 2251 DEB - Pass Details

Date: 05 July 2022
Orbit: 769 x 1233 km, 74.1° (Epoch: 15 August)

Event Time Altitude Azimuth Distance (km) Brightness Sun altitude
Exits shadow 03:56:53 - 271° (W) 3,450 ? -12.5°
Reaches altitude 10° 04:00:34 10° 297° (WNW) 2,812 ? -12.0°
Maximum altitude 04:03:02 12° 319° (NW) 2,719 ? -11.7°
Drops below altitude 10° 04:05:35 10° 341° (NNW) 2,942 ? -11.4°
Sets 04:10:34 0° 10° (N) 4,014 ? -10.7°
